Location: Lafig�re
(44.4503°N, 4.0357°E)
Time: 05:29:15
(UTC+00:00)

Transit 2A Rocket - Pass Details

Date: 24 June 2021
Orbit: 590 x 913 km, 66.7° (Epoch: 26 July)

Event Time Altitude Azimuth Distance (km) Brightness Sun altitude
Exits shadow 00:30:04 13° 269° (W) 1,753 6.7 -21.4°
Maximum altitude 00:32:54 23° 316° (NW) 1,316 6.6 -21.3°
Drops below altitude 10° 00:36:29 10° 9° (N) 2,016 8.4 -21.2°
Sets 00:39:16 0° 24° (NNE) 2,977 9.5 -21.1°
